Frederick, MD

8:59 PM EDT on April 29, 2017 (GMT -0400)
Frederick Municipal

Weather History for KFDK - April, 2014

Change the Weather History Date:

Monday, April 21, 2014

  Actual Average (KHGR) Record (KHGR)
Temperature  
Mean Temperature 52 °F -  
Max Temperature 71 °F 62 °F 83 °F (2017)
Min Temperature 33 °F 41 °F 33 °F (1997)
Degree Days  
Heating Degree Days 13    
Growing Degree Days 2 (Base 50)    
Moisture  
Dew Point 37 °F    
Average Humidity 77    
Maximum Humidity 100    
Minimum Humidity 20    
Precipitation  
Precipitation 0.00 in - - ()
Sea Level Pressure  
Sea Level Pressure 30.16 in    
Wind  
Wind Speed 0 mph (SSW)    
Max Wind Speed 6 mph    
Max Gust Speed -    
Visibility 9 miles    
Events      
Averages and records for this station are not official NWS values.
T = Trace of Precipitation, MM = Missing Value Source: NWS Daily Summary

Daily Weather History Graph

Daily Weather History Graph

Search for Another Location

Airport or City:

Trip Planner

Search our weather history database for the weather conditions in past years. The results will help you decide how hot, cold, wet, or windy it might be!

Date:

Astronomy

Apr. 21, 2014 Rise Set
Actual Time 6:23 AM EDT 7:53 PM EDT
Civil Twilight 5:55 AM EDT 8:21 PM EDT
Nautical Twilight 5:21 AM EDT 8:55 PM EDT
Astronomical Twilight 4:45 AM EDT 9:31 PM EDT
Moon 1:21 AM EDT (4/21) 11:48 AM EDT (4/21)
Length of Visible Light 14h 25m
Length of Day
13h 29m
Waning Gibbous, 58% of the Moon is Illuminated
Apr 21
Waning Gibbous
Apr 22
Last Quarter
Apr 29
New
May 6
First Quarter
May 14
Full

Hourly Weather History & Observations

Time (EDT) Temp. Dew Point Humidity Pressure Visibility Wind Dir Wind Speed Gust Speed Precip Events Conditions
12:05 AM 46.4 °F 37.4 °F 71% 30.33 in 10.0 mi Calm Calm - N/A   Clear
12:25 AM 42.8 °F 35.6 °F 76% 30.33 in 10.0 mi Calm Calm - N/A   Clear
12:45 AM 42.8 °F 37.4 °F 81% 30.32 in 10.0 mi Calm Calm - N/A   Clear
1:05 AM 41.0 °F 39.2 °F 93% 30.31 in 10.0 mi Calm Calm - N/A   Clear
1:25 AM 39.2 °F 39.2 °F 100% 30.30 in 10.0 mi Calm Calm - N/A   Clear
1:45 AM 37.4 °F 37.4 °F 100% 30.30 in 10.0 mi Calm Calm - N/A   Clear
2:05 AM 37.4 °F 37.4 °F 100% 30.30 in 10.0 mi Calm Calm - N/A   Clear
2:25 AM 39.2 °F 39.2 °F 100% 30.28 in 10.0 mi Calm Calm - N/A   Clear
2:45 AM 35.6 °F 35.6 °F 100% 30.27 in 10.0 mi Calm Calm - N/A   Clear
3:05 AM 35.6 °F 35.6 °F 100% 30.27 in 10.0 mi Calm Calm - N/A   Clear
3:25 AM 35.6 °F 35.6 °F 100% 30.26 in 10.0 mi Calm Calm - N/A   Clear
3:45 AM 35.6 °F 35.6 °F 100% 30.26 in 10.0 mi Calm Calm - N/A   Clear
4:05 AM 37.4 °F 37.4 °F 100% 30.26 in 10.0 mi Calm Calm - N/A   Clear
4:25 AM 35.6 °F 35.6 °F 100% 30.25 in 10.0 mi Calm Calm - N/A   Clear
4:45 AM 35.6 °F 35.6 °F 100% 30.26 in 7.0 mi Calm Calm - N/A   Clear
5:05 AM 33.8 °F 33.8 °F 100% 30.25 in 7.0 mi Calm Calm - N/A   Clear
5:25 AM 35.6 °F 35.6 °F 100% 30.25 in 7.0 mi Calm Calm - N/A   Clear
5:45 AM 33.8 °F 33.8 °F 100% 30.25 in 7.0 mi Calm Calm - N/A   Clear
6:05 AM 33.8 °F 33.8 °F 100% 30.25 in 7.0 mi Calm Calm - N/A   Clear
6:25 AM 33.8 °F 33.8 °F 100% 30.26 in 4.0 mi Calm Calm - N/A   Clear
6:35 AM 33.8 °F 33.8 °F 100% 30.26 in 2.5 mi Calm Calm - N/A   Clear
7:00 AM 35.6 °F 35.6 °F 100% 30.26 in 10.0 mi Calm Calm - N/A   Clear
7:50 AM 39.2 °F 39.2 °F 100% 30.25 in 10.0 mi Calm Calm - N/A   Clear
8:52 AM 44.6 °F 39.2 °F 81% 30.23 in 10.0 mi Calm Calm - N/A   Clear
10:00 AM 53.6 °F 30.2 °F 41% 30.22 in 10.0 mi Calm Calm - N/A   Clear
10:55 AM 55.4 °F 33.8 °F 44% 30.21 in 10.0 mi NNW 3.5 mph - N/A   Clear
11:50 AM 60.8 °F 33.8 °F 36% 30.17 in 10.0 mi Calm Calm - N/A   Clear
3:50 PM 71.6 °F 35.6 °F 27% 30.01 in 10.0 mi SSW 4.6 mph - N/A   Clear
4:50 PM 71.6 °F 35.6 °F 27% 29.99 in 10.0 mi SW 5.8 mph - N/A   Clear
5:50 PM 71.6 °F 28.4 °F 20% 29.97 in 10.0 mi Variable 4.6 mph - N/A   Clear
6:50 PM 69.8 °F 32.0 °F 25% 29.95 in 10.0 mi South 5.8 mph - N/A   Clear
8:45 PM 57.2 °F 35.6 °F 44% 29.94 in 10.0 mi Calm Calm - N/A   Clear
9:05 PM 59.0 °F 35.6 °F 42% 29.94 in 10.0 mi Calm Calm - N/A   Clear
9:25 PM 53.6 °F 41.0 °F 62% 29.94 in 10.0 mi Calm Calm - N/A   Clear
9:45 PM 57.2 °F 37.4 °F 48% 29.93 in 10.0 mi Calm Calm - N/A   Clear
10:05 PM 51.8 °F 41.0 °F 67% 29.93 in 10.0 mi Calm Calm - N/A   Clear
10:25 PM 50.0 °F 41.0 °F 71% 29.93 in 10.0 mi Calm Calm - N/A   Clear
10:45 PM 51.8 °F 41.0 °F 67% 29.92 in 10.0 mi Calm Calm - N/A   Clear
11:05 PM 51.8 °F 42.8 °F 71% 29.92 in 10.0 mi Calm Calm - N/A   Clear
11:25 PM 50.0 °F 42.8 °F 76% 29.92 in 10.0 mi Calm Calm - N/A   Clear
11:45 PM 50.0 °F 42.8 °F 76% 29.91 in 10.0 mi SE 3.5 mph - N/A   Clear